Zurück zum Katalog

JILIN-1 GAOFEN 07C 01 XING

AktivWissenschaftSSO
NORAD 66995·PAYLOAD·🇨🇳 China
Dieser Satellitenname wurde noch nicht durch offizielle Quellen bestätigt.

Gestartet Dec 10, 2025 von Jiuquan Satellite Launch Center

Loading…

Nächste Überflüge (nächste 24 Stunden)

TLE

AktuellSource: Space-Track

Epoche: Sep 14, 2026, 11:15 UTC

1 66995U 25292C   26257.46918170  .00003231  00000-0  21798-3 0  9992
2 66995  97.6250 332.4119 0015840  57.5924 302.6833 15.07245223 41897

Verfolge JILIN-1 GAOFEN 07C 01 XING in Echtzeit mit AllMySat

Download on the App Store